Content
SEND FEEDBACK

Daily
Averages
Monthly
Summary
United States of America

EARTH CITY, MISSOURI


Home > North America > United States > Missouri
Elevation: 476 feet     Latitude: 38 46N     Longitude: 090 30W

WEATHER
 
SELECT A DAY
Number of Records: 203,439;   Date Range: 1/1/95 - 7/29/14
 
SHARE

PRINT THIS DATA

[ ← Previous Day ]
WEATHER ALMANAC - MARCH 17, 2013
[ Next Day → ]
[ °C ]   °F
Weather ElementAverageHighLow
Temperature36.2 °F37.9 °F (1:51 am)33.8 °F (9:14 am)
Dewpoint30.3 °F34 °F (9:51 pm)26.1 °F (6:51 am)
Humidity79.8 %93 % (5:24 pm)70 % (6:51 am)
Barometer30.01 in30.13 in (6:51 am)29.81 in (11:51 pm)
Wind Speed10.8 mph18.4 mph (6:51 pm)
Wind Gust24.2 mph (8:51 pm)
Weather ElementAverage
Visibility6.2 mi
Wind DirectionENE (65.2 °)

Weather ElementTotal
Precipitation1.66 in
Heating Degree Days29.2 (Base 65)
Averaged from 46 records on March 17, 2013
WEATHER CONDITIONS BREAKOUT
WIND DIRECTION BREAKOUT
WEATHER BY HOUR - MARCH 17, 2013
[ °C ]   °F
Local TimeTemperatureDewpointHumidityBarometerVisibilityWind DirectionWind SpeedGust SpeedPrecipitationEventsConditions
1:48 AM37.4 °F30.2 °F75 %30.06 in10.0 miNNE (30°)9.2 mph0.00 inRainLight Rain
1:51 AM37.9 °F30.9 °F76 %30.08 in10.0 miNNE (30°)8.1 mph0.00 inRainLight Rain
2:51 AM37.0 °F30.9 °F79 %30.09 in8.0 miNE (40°)9.2 mph0.01 inRainLight Rain
3:51 AM37.0 °F30.9 °F79 %30.09 in10.0 miNE (50°)10.4 mph0.02 inRainLight Rain
4:10 AM35.6 °F30.2 °F81 %30.07 in10.0 miENE (60°)10.4 mph0.00 inOvercast
4:44 AM35.6 °F28.4 °F75 %30.06 in9.0 miENE (60°)10.4 mph0.00 inLight Ice Pellets
4:51 AM36.0 °F28.9 °F76 %30.08 in9.0 miENE (60°)13.8 mph0.00 inLight Ice Pellets
4:54 AM35.6 °F28.4 °F75 %30.06 in10.0 miENE (60°)11.5 mph0.00 inLight Drizzle
5:51 AM36.0 °F28.0 °F73 %30.09 in10.0 miENE (60°)11.5 mph0.00 inOvercast
6:51 AM35.1 °F26.1 °F70 %30.13 in10.0 miNE (50°)12.7 mphOvercast
7:51 AM35.1 °F26.1 °F70 %30.11 in10.0 miENE (70°)13.8 mph19.6 mphOvercast
8:38 AM35.6 °F26.6 °F70 %30.10 in10.0 miNE (50°)9.2 mphOvercast
8:51 AM35.1 °F27.0 °F72 %30.13 in7.0 miENE (60°)9.2 mph0.00 inSnowLight Snow
9:08 AM35.6 °F26.6 °F70 %30.10 in4.0 miNE (50°)8.1 mph0.00 inSnowLight Snow
9:14 AM33.8 °F28.4 °F81 %30.10 in2.5 miNE (50°)8.1 mph0.00 inSnowLight Snow
9:34 AM33.8 °F28.4 °F81 %30.10 in3.0 miENE (60°)8.1 mph0.00 inSnowLight Snow
9:43 AM33.8 °F28.4 °F81 %30.09 in4.0 miENE (60°)8.1 mph0.00 inSnowLight Snow
9:51 AM34.0 °F28.9 °F82 %30.11 in4.0 miNE (50°)6.9 mph0.00 inSnowLight Snow
9:58 AM35.6 °F30.2 °F81 %30.09 in5.0 miENE (60°)8.1 mph0.00 inSnowLight Snow
10:51 AM36.0 °F30.0 °F79 %30.11 in6.0 miENE (70°)9.2 mph0.00 inSnowLight Snow
11:34 AM37.4 °F28.4 °F70 %30.06 in9.0 miENE (70°)13.8 mph0.00 inOvercast
11:51 AM37.0 °F28.9 °F73 %30.07 in10.0 miENE (60°)12.7 mph0.00 inRainLight Rain
12:51 PM37.9 °F28.9 °F70 %30.06 in10.0 miENE (60°)10.4 mph0.00 inRain-SnowLight Rain
1:04 PM37.4 °F28.4 °F70 %30.04 in10.0 miNE (50°)10.4 mph0.00 inRain-SnowLight Rain
1:51 PM37.9 °F30.0 °F73 %30.03 in10.0 miENE (70°)10.4 mph0.00 inOvercast
2:51 PM37.9 °F30.9 °F76 %30.01 in7.0 miEast (80°)11.5 mph0.00 inRainLight Rain
3:04 PM37.4 °F30.2 °F75 %29.98 in7.0 miEast (80°)9.2 mph0.00 inRainLight Ice Pellets
3:17 PM37.4 °F30.2 °F75 %29.99 in8.0 miENE (60°)8.1 mph0.00 inRainLight Rain
3:31 PM37.4 °F30.2 °F75 %29.99 in4.0 miNE (50°)8.1 mph0.00 inRain-SnowLight Rain
3:33 PM37.4 °F30.2 °F75 %29.99 in1.5 miENE (60°)6.9 mph0.01 inRain-SnowLight Rain
3:41 PM35.6 °F30.2 °F81 %29.97 in1.0 miEast (80°)10.4 mph0.02 inRain-SnowLight Rain
3:51 PM35.1 °F30.9 °F85 %29.98 in1.0 miENE (70°)11.5 mph0.06 inRain-SnowLight Rain
4:15 PM35.6 °F32.0 °F87 %29.93 in3.0 miEast (80°)11.5 mph0.04 inRainLight Rain
4:51 PM36.0 °F33.1 °F89 %29.96 in3.0 miENE (70°)6.9 mph0.04 inRainLight Rain
5:24 PM35.6 °F33.8 °F93 %29.92 in3.0 miENE (70°)10.4 mph0.00 inRainLight Rain
5:51 PM36.0 °F32.0 °F86 %29.97 in2.0 miENE (60°)8.1 mph0.01 inRainLight Rain
6:17 PM35.6 °F32.0 °F87 %29.91 in2.0 miEast (90°)12.7 mph0.09 inRain-ThunderstormLight Thunderstorms and Rain
6:51 PM35.1 °F32.0 °F89 %29.91 in3.0 miENE (70°)18.4 mph0.24 inRain-ThunderstormLight Thunderstorms and Rain
7:13 PM35.6 °F33.8 °F93 %29.87 in3.0 miENE (70°)12.7 mph0.07 inRainLight Rain
7:44 PM35.6 °F33.8 °F93 %29.88 in3.0 miENE (70°)13.8 mph0.14 inRain-ThunderstormThunderstorms and Rain
7:51 PM36.0 °F33.1 °F89 %29.91 in3.0 miEast (80°)11.5 mph0.19 inRain-ThunderstormThunderstorms and Rain
8:51 PM36.0 °F33.1 °F89 %29.86 in3.0 miEast (100°)18.4 mph24.2 mph0.31 inRain-ThunderstormThunderstorms and Rain
9:28 PM37.4 °F33.8 °F87 %29.83 in3.0 miESE (110°)18.4 mph0.15 inRainRain
9:51 PM37.0 °F34.0 °F89 %29.87 in6.0 miEast (100°)13.8 mph24.2 mph0.19 inRainLight Rain
10:51 PM37.0 °F34.0 °F89 %29.82 in10.0 miEast (80°)11.5 mph0.02 inOvercast
11:51 PM37.0 °F34.0 °F89 %29.81 in6.0 miEast (80°)9.2 mph0.05 inRainLight Rain
Hourly data recorded from KSTL, located miles away from Earth City, Missouri







STORIES FROM OUR PARTNERS